2019-036Z (44375 NORAD) Tracking and Keplerian Element Data

This shows tracking and keplerian element data for the satellite.

Feedback or suggestion? Click here.




ElementValue
Catalog44375
Name2019-036Z
Epoch Orbit281
Epoch Day201.85337064
Epoch Year2019
RAAN34.5909
Inclination28.5222
Eccentricity0.0386013
Argument of Perigee16.2262
Mean Anonmoly345.0327
Mean Motion14.97758366
Decay Rate0.00015023
L11 44375U 19036Z 19201.85337064 .00015023 00000-0 23547-3 0 9996
L22 44375 28.5222 34.5909 0386013 16.2262 345.0327 14.97758366 2817

Live tracking and technical data element details for 2019-036Z (NORAD 44375). 2019-036Z can be tracked NOW for your location showing map with azimuth and elevation plus other details from your city location.

Track the satellite on the map from your city or location and see movement details for azimuth, elevation, latitude, longitude, range, height, and movement on the map or in text.







IsCatalogInMostPopularTable: catalog: 44375, numindb: 3
Update: records affected: 1



GetName: 44375 2019-036Z

Hit Count: updated at: Sun, 21 Jul 2019 21:26:27 GMT